[[{"header":{"parameterUnit":"m.s-1","parameterCategory":1,"la1":30.2991,"la2":30.254,"lo1":-89.0895,"lo2":-89.0444,"dy":0.0017,"dx":0.0017,"nx":28,"ny":28,"refTime":"2025-09-17T09:00:00:Z","depth":0,"parameterNumber":2,"parameterNumberName":"U-component_of_WINDS"},"data":[0,0,0,0,0,0,0,0,0,0,0,0,0,0,0,0,0,0,0,0,0,0,0,0,0,0,0,0,0,0,0,0,0,0,0,0,0,0,0,0,0,0,0,0,0,0,0,0,0,0,0,0,0,0,0,0,0,0,-0.1908,-0.1909,0,-0.2009,-0.201,-0.2011,-0.2074,-0.2075,-0.2075,-0.2075,-0.2181,-0.2183,-0.2185,0,0,0,0,0,0,0,0,0,0,0,0,0,-0.1772,-0.1774,-0.1908,-0.1909,-0.191,-0.2008,-0.201,-0.2011,-0.2074,-0.2075,-0.2075,-0.2076,-0.218,-0.2183,-0.2186,0,0,0,0,0,0,0,0,0,0,0,0,0,-0.1848,-0.1775,-0.1907,-0.1953,-0.1959,-0.2008,-0.201,-0.2012,-0.2074,-0.2075,-0.2075,-0.2076,-0.2179,-0.2182,-0.2186,-0.2198,0,0,-0.2197,-0.2199,0,0,0,0,0,0,0,0,-0.1843,-0.1853,-0.1945,-0.195,-0.1956,-0.2029,-0.2001,-0.2074,-0.2074,-0.203,-0.2075,-0.2076,-0.213,-0.2138,-0.2156,-0.2203,-0.2208,-0.2198,-0.22,-0.2202,-0.2203,0,0,0,0,0,0,0,-0.1838,-0.1849,-0.1948,-0.1947,-0.1953,-0.197,-0.1981,-0.2015,-0.2076,-0.2034,-0.2039,-0.205,-0.2133,-0.2152,-0.2159,-0.2209,-0.2198,-0.2201,-0.2203,-0.2205,-0.2273,-0.2273,0,0,0,0,0,0,-0.1825,-0.1844,-0.1945,-0.1951,-0.19,-0.1972,-0.1985,-0.2005,-0.2076,-0.2087,-0.2049,-0.2053,-0.2145,-0.2154,-0.2162,-0.2182,-0.2202,-0.2205,-0.2207,-0.2274,-0.2273,-0.2273,0,0,0,0,0,0,-0.1822,-0.1833,-0.194,-0.1899,-0.1913,-0.1974,-0.1997,-0.2007,-0.2026,-0.2087,-0.2099,-0.2057,-0.2146,-0.2157,-0.2189,-0.2187,-0.2207,-0.221,-0.2274,-0.2273,-0.2273,-0.2221,0,0,0,0,0,0,-0.1818,-0.1832,-0.1837,-0.1898,-0.1915,-0.1964,-0.1996,-0.2009,-0.2032,-0.2037,-0.2098,-0.2108,-0.2147,-0.2183,-0.2193,-0.2192,-0.2213,-0.2275,-0.2274,-0.2273,-0.2223,-0.2218,-0.2214,0,0,0,0,0,-0.1813,-0.1818,-0.1836,-0.1848,-0.1922,-0.1964,-0.1974,-0.2018,-0.2031,-0.2037,-0.2077,-0.2106,-0.2185,-0.2186,-0.2197,-0.2197,-0.2275,-0.2274,-0.2273,-0.2225,-0.2219,-0.2214,0,0,0,0,0,0,-0.1755,-0.1827,-0.1848,-0.1874,-0.1912,-0.1975,-0.1983,-0.2011,-0.2047,-0.205,-0.2104,-0.2118,-0.2144,-0.2174,-0.2174,-0.2214,-0.2234,-0.2235,-0.2193,-0.2188,-0.2184,-0.2176,-0.2216,0,0,0,0,0,-0.1745,-0.1772,-0.1834,-0.1851,-0.1869,-0.1922,-0.1942,-0.1973,-0.2015,-0.2032,-0.2074,-0.2115,-0.2149,-0.217,-0.2205,-0.2227,-0.2242,-0.2233,-0.2229,-0.2225,-0.2226,-0.2241,-0.2238,-0.227,-0.227,-0.227,0,0,-0.1726,-0.1768,-0.1782,-0.184,-0.1874,-0.1901,-0.1936,-0.1963,-0.1985,-0.2037,-0.2069,-0.2101,-0.215,-0.2178,-0.2192,-0.2204,-0.222,-0.2224,-0.2221,-0.2224,-0.224,-0.2236,-0.2234,-0.2269,-0.2269,-0.2269,0,0,-0.1704,-0.1738,-0.1756,-0.1789,-0.1839,-0.1875,-0.1879,-0.1937,-0.1961,-0.1994,-0.2034,-0.206,-0.2117,-0.2151,-0.2175,-0.2166,-0.2195,-0.2176,-0.2154,-0.2168,-0.2166,-0.2164,-0.2161,-0.2159,-0.2177,-0.2177,-0.2176,0,-0.1673,-0.1715,-0.1762,-0.1787,-0.1812,-0.186,-0.1879,-0.1908,-0.1967,-0.1984,-0.1996,-0.2069,-0.2106,-0.2142,-0.2139,-0.2157,-0.2165,-0.217,-0.2162,-0.2161,-0.216,-0.2158,-0.2156,-0.2174,-0.2174,-0.2174,-0.2175,0,-0.1675,-0.1704,-0.1713,-0.1768,-0.1794,-0.1815,-0.1866,-0.1887,-0.1915,-0.195,-0.1984,-0.2029,-0.2074,-0.2085,-0.2113,-0.2125,-0.2131,-0.2152,-0.2173,-0.2153,-0.2152,-0.2152,-0.217,-0.2171,-0.2172,-0.2172,0,0,-0.162,-0.1701,-0.1703,-0.1729,-0.1788,-0.1811,-0.1836,-0.1879,-0.1896,-0.1935,-0.1958,-0.2005,-0.2025,-0.2053,-0.2086,-0.2098,-0.2088,-0.2118,-0.212,-0.2111,-0.2105,-0.2089,-0.2087,-0.2108,-0.2108,-0.2108,-0.2101,0,-0.1607,-0.1652,-0.1695,-0.1726,-0.1753,-0.1799,-0.1821,-0.186,-0.1893,-0.1922,-0.1959,-0.1992,-0.2015,-0.2033,-0.2047,-0.2086,-0.2088,-0.2088,-0.213,-0.2131,-0.2116,-0.2087,-0.207,-0.2061,-0.2101,-0.2101,-0.2101,0,-0.1598,-0.1635,-0.1667,-0.1724,-0.1737,-0.1756,-0.1799,-0.1826,-0.1872,-0.1895,-0.1926,-0.196,-0.1989,-0.2007,-0.2048,-0.2047,-0.2067,-0.2089,-0.209,-0.2096,-0.2115,-0.2092,-0.206,-0.2058,-0.2101,-0.2101,-0.2101,0,-0.1555,-0.1612,-0.164,-0.166,-0.1727,-0.1739,-0.1767,-0.1813,-0.1837,-0.1875,-0.1891,-0.1932,-0.1955,-0.1987,-0.2032,-0.204,-0.2068,-0.209,-0.2089,-0.2088,-0.2093,-0.2092,-0.2063,-0.2105,-0.2105,-0.2105,-0.2105,0,-0.1536,-0.1554,-0.1621,-0.1638,-0.166,-0.171,-0.1731,-0.1763,-0.1804,-0.1828,-0.1871,-0.1893,-0.1951,-0.1981,-0.2016,-0.2045,-0.2055,-0.2076,-0.2085,-0.2072,-0.2069,-0.2086,-0.2088,-0.2105,-0.2105,-0.2105,-0.2105,0,-0.1491,-0.1537,-0.157,-0.163,-0.1645,-0.1659,-0.1712,-0.173,-0.1765,-0.1796,-0.1806,-0.1862,-0.1899,-0.1947,-0.2,-0.2024,-0.2049,-0.2063,-0.2033,-0.2038,-0.2035,-0.2035,-0.2016,-0.2017,-0.2057,-0.2057,-0.2056,0,-0.1476,-0.1492,-0.1553,-0.1573,-0.16,-0.163,-0.1654,-0.1703,-0.1727,-0.178,-0.1792,-0.1832,-0.1867,-0.1925,-0.197,-0.2011,-0.2027,-0.2017,-0.2033,-0.202,-0.2027,-0.2026,-0.2028,-0.2013,-0.2013,-0.2012,-0.2012,0,-0.1445,-0.1467,-0.15,-0.154,-0.1568,-0.1602,-0.1639,-0.1652,-0.171,-0.1734,-0.1772,-0.1799,-0.1852,-0.1892,-0.1938,-0.1969,-0.2,-0.2006,-0.2008,-0.1995,-0.1978,-0.1988,-0.2022,-0.2007,-0.2007,-0.2007,-0.2008,-0.2008,-0.1416,-0.1432,-0.1478,-0.1513,-0.1545,-0.1578,-0.1599,-0.1637,-0.1669,-0.1716,-0.1743,-0.178,-0.1826,-0.1892,-0.1921,-0.1951,-0.1963,-0.1966,-0.1967,-0.1967,-0.1963,-0.1972,-0.196,-0.196,-0.1961,-0.1961,-0.1961,0,-0.1388,-0.1419,-0.1451,-0.15,-0.1528,-0.1554,-0.1596,-0.1618,-0.165,-0.169,-0.1723,-0.1767,-0.1806,-0.1855,-0.1897,-0.1912,-0.1927,-0.1921,-0.1921,-0.1928,-0.195,-0.1944,-0.1908,-0.1908,-0.1908,-0.1908,-0.1908,-0.1908,-0.1376,-0.1404,-0.1431,-0.1476,-0.1509,-0.1545,-0.1566,-0.1598,-0.163,-0.1677,-0.1709,-0.174,-0.1784,-0.183,-0.1867,-0.188,-0.1894,-0.1884,-0.1902,-0.1921,-0.1926,-0.1931,-0.1925,-0.1886,-0.1886,-0.1877,-0.1877,-0.1877]},{"header":{"parameterUnit":"m.s-1","parameterCategory":1,"la1":30.2991,"la2":30.254,"lo1":-89.0895,"lo2":-89.0444,"dy":0.0017,"dx":0.0017,"nx":28,"ny":28,"refTime":"2025-09-17T09:00:00:Z","depth":0,"parameterNumber":3,"parameterNumberName":"V-component_of_WINDS"},"data":[0,0,0,0,0,0,0,0,0,0,0,0,0,0,0,0,0,0,0,0,0,0,0,0,0,0,0,0,0,0,0,0,0,0,0,0,0,0,0,0,0,0,0,0,0,0,0,0,0,0,0,0,0,0,0,0,0,0,-1.8013,-1.8014,0,-1.804,-1.8041,-1.8041,-1.8023,-1.8022,-1.8021,-1.802,-1.8048,-1.8049,-1.8051,0,0,0,0,0,0,0,0,0,0,0,0,0,-1.7947,-1.7948,-1.8013,-1.8014,-1.8014,-1.804,-1.8041,-1.8041,-1.8023,-1.8022,-1.8021,-1.802,-1.8047,-1.8049,-1.8051,0,0,0,0,0,0,0,0,0,0,0,0,0,-1.7975,-1.7948,-1.8013,-1.8008,-1.8008,-1.804,-1.8041,-1.8041,-1.8023,-1.8022,-1.8021,-1.8019,-1.8047,-1.8049,-1.8051,-1.809,0,0,-1.8058,-1.8059,0,0,0,0,0,0,0,0,-1.7973,-1.7977,-1.8009,-1.8009,-1.8008,-1.8027,-1.8027,-1.8057,-1.8023,-1.8017,-1.802,-1.8019,-1.8042,-1.8044,-1.8052,-1.8091,-1.8092,-1.8058,-1.8059,-1.806,-1.8061,0,0,0,0,0,0,0,-1.7971,-1.7976,-1.8024,-1.8009,-1.8009,-1.8005,-1.8007,-1.8033,-1.8036,-1.8018,-1.8017,-1.802,-1.8041,-1.805,-1.8053,-1.8092,-1.8058,-1.806,-1.8061,-1.8062,-1.8164,-1.8166,0,0,0,0,0,0,-1.797,-1.7975,-1.8023,-1.8025,-1.7987,-1.8007,-1.801,-1.8022,-1.8036,-1.8037,-1.8021,-1.8019,-1.8047,-1.805,-1.8053,-1.81,-1.806,-1.8062,-1.8064,-1.8163,-1.8165,-1.8166,0,0,0,0,0,0,-1.7968,-1.7974,-1.8022,-1.7999,-1.8005,-1.8009,-1.8023,-1.8023,-1.8032,-1.8038,-1.8039,-1.8029,-1.8046,-1.805,-1.8081,-1.81,-1.8063,-1.8066,-1.8161,-1.8164,-1.8165,-1.8192,0,0,0,0,0,0,-1.7967,-1.7974,-1.7989,-1.8,-1.8006,-1.8049,-1.8025,-1.8025,-1.8036,-1.8033,-1.8046,-1.8047,-1.8045,-1.8078,-1.8083,-1.8103,-1.8067,-1.816,-1.8162,-1.8165,-1.8189,-1.8195,-1.8199,0,0,0,0,0,-1.7964,-1.7995,-1.7989,-1.7995,-1.8025,-1.805,-1.8054,-1.8051,-1.8037,-1.8052,-1.8056,-1.8046,-1.8097,-1.8081,-1.8087,-1.8107,-1.8158,-1.8162,-1.8165,-1.8187,-1.8194,-1.8199,0,0,0,0,0,0,-1.7986,-1.7996,-1.799,-1.8025,-1.8037,-1.8047,-1.8065,-1.8058,-1.8074,-1.8071,-1.8068,-1.8071,-1.8103,-1.8108,-1.8089,-1.8146,-1.8126,-1.813,-1.8141,-1.8147,-1.8152,-1.815,-1.8069,0,0,0,0,0,-1.7994,-1.8014,-1.8022,-1.8052,-1.8059,-1.8061,-1.8072,-1.8069,-1.8081,-1.8086,-1.8092,-1.8104,-1.8123,-1.8135,-1.8153,-1.819,-1.8193,-1.8207,-1.8212,-1.8216,-1.822,-1.824,-1.8247,-1.8176,-1.8176,-1.8176,0,0,-1.8013,-1.8021,-1.8034,-1.8057,-1.8066,-1.8086,-1.8065,-1.8088,-1.8103,-1.8089,-1.8118,-1.8124,-1.8137,-1.8171,-1.8186,-1.8176,-1.824,-1.822,-1.8223,-1.8225,-1.8244,-1.8251,-1.8257,-1.8178,-1.8178,-1.8178,0,0,-1.8056,-1.8065,-1.8091,-1.81,-1.8113,-1.8115,-1.8121,-1.8133,-1.8136,-1.8165,-1.8155,-1.8173,-1.8205,-1.8215,-1.8224,-1.8273,-1.8264,-1.8278,-1.8304,-1.8324,-1.833,-1.8334,-1.8352,-1.8358,-1.8282,-1.8282,-1.8282,0,-1.8077,-1.8108,-1.8105,-1.8128,-1.8139,-1.8128,-1.8154,-1.8163,-1.8182,-1.819,-1.8179,-1.8219,-1.8227,-1.8263,-1.8275,-1.8283,-1.829,-1.8277,-1.8329,-1.8334,-1.8338,-1.8355,-1.8361,-1.8284,-1.8284,-1.8284,-1.8283,0,-1.8133,-1.8154,-1.8174,-1.8192,-1.8205,-1.823,-1.8231,-1.8244,-1.8241,-1.8244,-1.8274,-1.8283,-1.8302,-1.8311,-1.8307,-1.8347,-1.8341,-1.8329,-1.8309,-1.8347,-1.8362,-1.8368,-1.8286,-1.8286,-1.8285,-1.8285,0,0,-1.819,-1.8207,-1.8214,-1.8223,-1.8237,-1.8253,-1.8278,-1.8297,-1.8309,-1.8322,-1.8342,-1.837,-1.836,-1.8371,-1.8368,-1.8386,-1.8424,-1.8373,-1.8373,-1.8382,-1.8468,-1.8476,-1.8483,-1.8418,-1.8419,-1.842,-1.8467,0,-1.8235,-1.8278,-1.8276,-1.8316,-1.8335,-1.8325,-1.8347,-1.8358,-1.8361,-1.8379,-1.8383,-1.8402,-1.8387,-1.8394,-1.8411,-1.8415,-1.8441,-1.8412,-1.8437,-1.8438,-1.8434,-1.8491,-1.85,-1.8544,-1.8473,-1.8474,-1.8475,0,-1.8292,-1.8308,-1.835,-1.8361,-1.837,-1.8389,-1.8406,-1.8423,-1.8436,-1.8437,-1.8449,-1.8444,-1.8469,-1.8449,-1.8483,-1.8464,-1.8474,-1.8478,-1.8479,-1.8482,-1.8458,-1.8495,-1.8557,-1.8564,-1.8484,-1.8483,-1.8483,0,-1.833,-1.8361,-1.839,-1.8398,-1.8412,-1.8426,-1.8433,-1.8444,-1.8456,-1.8471,-1.8479,-1.8497,-1.8507,-1.8521,-1.8521,-1.8506,-1.8556,-1.8536,-1.8558,-1.8558,-1.8569,-1.8568,-1.8633,-1.8576,-1.8576,-1.8575,-1.8575,0,-1.838,-1.8406,-1.8407,-1.8425,-1.8454,-1.8452,-1.8481,-1.8486,-1.8497,-1.8516,-1.8508,-1.8526,-1.8525,-1.8543,-1.8544,-1.8572,-1.8577,-1.8579,-1.8579,-1.8579,-1.8579,-1.8586,-1.8583,-1.8577,-1.8577,-1.8577,-1.8576,0,-1.8426,-1.8429,-1.846,-1.8471,-1.8474,-1.8495,-1.8505,-1.8522,-1.8525,-1.8549,-1.8554,-1.8559,-1.858,-1.8582,-1.8606,-1.8607,-1.8642,-1.8638,-1.8637,-1.8637,-1.8659,-1.8657,-1.8731,-1.8741,-1.8677,-1.8677,-1.8678,0,-1.8458,-1.8478,-1.8491,-1.8503,-1.8511,-1.853,-1.8542,-1.8541,-1.8554,-1.857,-1.8586,-1.8606,-1.8622,-1.8657,-1.8662,-1.8681,-1.8678,-1.8703,-1.8681,-1.8681,-1.8678,-1.8677,-1.8679,-1.8707,-1.8708,-1.8708,-1.8709,0,-1.8514,-1.8514,-1.8531,-1.8549,-1.8564,-1.8578,-1.8591,-1.8602,-1.8603,-1.8617,-1.8639,-1.8652,-1.8677,-1.8697,-1.8716,-1.8723,-1.8716,-1.8716,-1.8722,-1.8723,-1.8722,-1.8723,-1.8649,-1.8714,-1.8713,-1.8713,-1.8713,-1.8712,-1.8554,-1.8571,-1.8583,-1.8603,-1.8613,-1.8626,-1.8642,-1.8647,-1.8665,-1.8686,-1.8684,-1.8708,-1.8721,-1.8745,-1.8753,-1.8772,-1.8764,-1.8773,-1.8775,-1.8777,-1.878,-1.8719,-1.8776,-1.8776,-1.8775,-1.8775,-1.8775,0,-1.8609,-1.8616,-1.8635,-1.8654,-1.8669,-1.8662,-1.8676,-1.869,-1.8711,-1.8723,-1.8739,-1.8765,-1.8785,-1.8792,-1.8812,-1.8825,-1.8823,-1.883,-1.8829,-1.8831,-1.8786,-1.8779,-1.8832,-1.8832,-1.8832,-1.8832,-1.8832,-1.8832,-1.864,-1.8668,-1.867,-1.8704,-1.8711,-1.8735,-1.8743,-1.8755,-1.8765,-1.8793,-1.881,-1.8815,-1.8825,-1.8846,-1.8864,-1.8865,-1.8873,-1.8882,-1.8883,-1.884,-1.8834,-1.8829,-1.8822,-1.8884,-1.8884,-1.8926,-1.8927,-1.8927]}]]